• Join FlightAware (Why Join?)
  • Login
  • US Flag 
04:44PM EST


 

Airport Tracker/Info


-or-


 

Live Flight TrackerFlight Track Log ✈ SWA1535 ✈ 23-Apr-2013 ✈ KMCO - KSTL

Flight Track Log - Related Links

Times and Time Zones

All times are in EDT time to prevent confusion due to time zone crossing. See the SWA1535 flight status page for this flight to view local times or setup timezone preferences in your user account.

Time Position Orientation Groundspeed Altitude Reporting Facility
EDT Latitude Longitude Course Direction KTS MPH feet Rate Location/Type
04:48PM 28.4333 -81.3167 360° North 151 174 500  Level Orlando TRACON
04:48PM 28.4667 -81.3167 360° North 155 178 1,400 2,000 Climbing Orlando TRACON
04:49PM 28.5167 -81.3167 360° North 210 242 3,300 2,238 Climbing Orlando TRACON
04:50PM 28.5667 -81.3500 330° Northwest 259 298 6,100 2,362 Climbing Orlando TRACON
04:51PM 28.5500 -81.4333 257° West 284 327 8,300 2,380 Climbing Orlando TRACON
04:52PM 28.5167 -81.5167 246° West 301 346 10,900 2,595 Climbing Orlando TRACON
04:54PM 28.4747 -81.7544 259° West 372 428 16,300 2,724 Climbing Jacksonville Center
04:55PM 28.4903 -81.8722 279° West 367 422 19,300 2,750 Climbing Jacksonville Center
04:56PM 28.5078 -81.9925 279° West 378 435 21,800 2,450 Climbing Jacksonville Center
04:57PM 28.5253 -82.1175 279° West 389 448 24,200 2,150 Climbing Jacksonville Center
04:58PM 28.5739 -82.2331 296° West 395 455 26,100 1,800 Climbing Jacksonville Center
04:59PM 28.6619 -82.3178 320° Northwest 400 460 27,800 1,650 Climbing Jacksonville Center
05:00PM 28.7542 -82.4022 321° Northwest 400 460 29,400 1,750 Climbing Jacksonville Center
05:01PM 28.8525 -82.4825 324° Northwest 422 486 31,300 1,850 Climbing Jacksonville Center
05:02PM 28.9447 -82.5603 324° Northwest 427 491 33,100 1,950 Climbing Jacksonville Center
05:03PM 29.0367 -82.6408 323° Northwest 421 484 35,200 1,900 Climbing Jacksonville Center
05:04PM 29.1244 -82.7167 323° Northwest 413 475 36,900 1,400 Climbing Jacksonville Center
05:05PM 29.2100 -82.7903 323° Northwest 406 467 38,000 550 Climbing Jacksonville Center
05:06PM 29.2958 -82.8639 323° Northwest 387 445 38,000  Level Jacksonville Center
05:07PM 29.3772 -82.9356 323° Northwest 382 440 38,000  Level Jacksonville Center
05:08PM 29.4628 -83.0119 322° Northwest 382 440 38,000  Level Jacksonville Center
05:09PM 29.5439 -83.0836 322° Northwest 394 453 38,000  Level Jacksonville Center
05:10PM 29.6253 -83.1531 323° Northwest 388 447 38,000  Level Jacksonville Center
05:11PM 29.7086 -83.2272 322° Northwest 382 440 38,000  Level Jacksonville Center
05:12PM 29.7981 -83.3089 322° Northwest 382 440 38,000  Level Jacksonville Center
05:13PM 29.8814 -83.3814 323° Northwest 382 440 38,000  Level Jacksonville Center
05:14PM 29.9667 -83.4536 324° Northwest 377 434 38,000  Level Jacksonville Center
05:15PM 30.0394 -83.5164 323° Northwest 377 434 38,000  Level Jacksonville Center
05:16PM 30.1247 -83.5939 322° Northwest 377 434 38,000  Level Jacksonville Center
05:17PM 30.2058 -83.6664 322° Northwest 377 434 38,000  Level Jacksonville Center
05:18PM 30.2928 -83.7442 322° Northwest 377 434 38,000  Level Jacksonville Center
05:19PM 30.3758 -83.8172 323° Northwest 372 428 38,000  Level Jacksonville Center
05:20PM 30.4608 -83.8903 323° Northwest 377 434 38,000  Level Jacksonville Center
05:21PM 30.5481 -83.9683 322° Northwest 382 440 38,000  Level Jacksonville Center
05:22PM 30.6267 -84.0442 320° Northwest 375 432 38,000  Level Jacksonville Center
05:23PM 30.7117 -84.1200 323° Northwest 375 432 38,000  Level Jacksonville Center
05:24PM 30.7944 -84.1961 322° Northwest 375 432 38,000  Level Jacksonville Center
05:25PM 30.8811 -84.2722 323° Northwest 375 432 38,000  Level Jacksonville Center
05:26PM 30.9639 -84.3486 322° Northwest 375 432 38,000  Level Jacksonville Center
05:27PM 31.0486 -84.4228 323° Northwest 375 432 38,000  Level Jacksonville Center
05:28PM 31.1333 -84.5017 321° Northwest 375 432 38,000  Level Jacksonville Center
05:29PM 31.2178 -84.5808 321° Northwest 380 437 38,000  Level Jacksonville Center
05:32PM 31.4064 -84.7542 322° Northwest 389 448 38,000  Level Atlanta Center
05:33PM 31.4894 -84.8303 322° Northwest 389 448 38,000  Level Atlanta Center
05:34PM 31.5744 -84.9067 323° Northwest 389 448 38,000  Level Atlanta Center
05:35PM 31.6575 -84.9856 321° Northwest 389 448 38,000  Level Atlanta Center
05:36PM 31.7425 -85.0622 323° Northwest 389 448 38,000  Level Atlanta Center
05:37PM 31.8086 -85.1264 320° Northwest 389 448 38,000  Level Atlanta Center
05:38PM 31.8997 -85.2083 323° Northwest 383 441 38,000  Level Atlanta Center
05:39PM 31.9867 -85.2853 323° Northwest 383 441 38,000  Level Atlanta Center
05:40PM 32.0672 -85.3647 320° Northwest 388 447 38,000  Level Atlanta Center
05:41PM 32.1539 -85.4422 323° Northwest 388 447 38,000  Level Atlanta Center
05:42PM 32.2386 -85.5219 321° Northwest 388 447 38,000  Level Atlanta Center
05:43PM 32.3253 -85.6044 321° Northwest 388 447 38,000  Level Atlanta Center
05:44PM 32.4119 -85.6847 322° Northwest 394 453 38,000  Level Atlanta Center
05:45PM 32.4964 -85.7653 321° Northwest 394 453 38,000  Level Atlanta Center
05:46PM 32.5831 -85.8433 323° Northwest 394 453 38,000  Level Atlanta Center
05:47PM 32.6672 -85.9264 320° Northwest 394 453 38,000  Level Atlanta Center
05:48PM 32.7639 -86.0175 322° Northwest 394 453 38,000  Level Atlanta Center
05:49PM 32.8461 -86.0983 320° Northwest 394 453 38,000  Level Atlanta Center
05:50PM 32.9325 -86.1797 322° Northwest 394 453 38,000  Level Atlanta Center
05:51PM 33.0144 -86.2608 320° Northwest 389 448 38,000  Level Atlanta Center
05:52PM 33.1006 -86.3425 322° Northwest 394 453 38,000  Level Atlanta Center
05:53PM 33.1889 -86.4267 321° Northwest 394 453 38,000  Level Atlanta Center
05:54PM 33.2728 -86.5061 322° Northwest 394 453 38,000  Level Atlanta Center
05:55PM 33.3444 -86.5803 319° Northwest 394 453 38,000  Level Atlanta Center
05:56PM 33.4303 -86.6625 321° Northwest 394 453 38,000  Level Atlanta Center
05:57PM 33.5119 -86.7444 320° Northwest 394 453 38,000  Level Atlanta Center
05:58PM 33.5978 -86.8269 321° Northwest 394 453 38,000  Level Atlanta Center
05:59PM 33.6836 -86.9097 321° Northwest 394 453 38,000  Level Atlanta Center
06:01PM 33.8744 -87.0672 326° Northwest 414 476 38,000  Level Memphis Center
06:02PM 33.9661 -87.1389 327° Northwest 404 465 38,000  Level Memphis Center
06:03PM 34.0619 -87.2156 326° Northwest 404 465 38,000  Level Memphis Center
06:04PM 34.1597 -87.2872 329° Northwest 396 456 38,000  Level Memphis Center
06:05PM 34.2511 -87.3594 327° Northwest 396 456 38,000  Level Memphis Center
06:06PM 34.3447 -87.4342 327° Northwest 401 461 38,000  Level Memphis Center
06:07PM 34.4383 -87.5114 326° Northwest 415 478 38,000  Level Memphis Center
06:08PM 34.5342 -87.5889 326° Northwest 409 471 38,000  Level Memphis Center
06:09PM 34.6211 -87.6542 328° Northwest 416 479 38,000  Level Memphis Center
06:10PM 34.7125 -87.7297 326° Northwest 403 464 38,000  Level Memphis Center
06:11PM 34.8036 -87.8053 326° Northwest 403 464 38,000  Level Memphis Center
06:12PM 34.8969 -87.8783 327° Northwest 403 464 38,000  Level Memphis Center
06:13PM 34.9903 -87.9567 325° Northwest 403 464 38,000  Level Memphis Center
06:14PM 35.0836 -88.0328 326° Northwest 403 464 38,000  Level Memphis Center
06:15PM 35.1767 -88.1064 327° Northwest 403 464 38,000  Level Memphis Center
06:16PM 35.2697 -88.1825 326° Northwest 403 464 38,000  Level Memphis Center
06:17PM 35.3608 -88.2617 325° Northwest 403 464 38,000  Level Memphis Center
06:18PM 35.4603 -88.3383 328° Northwest 403 464 38,000  Level Memphis Center
06:19PM 35.5553 -88.4125 328° Northwest 403 464 38,000  Level Memphis Center
06:20PM 35.6483 -88.4919 325° Northwest 403 464 38,000  Level Memphis Center
06:21PM 35.7369 -88.5667 326° Northwest 403 464 38,000  Level Memphis Center
06:22PM 35.8297 -88.6467 325° Northwest 403 464 38,000  Level Memphis Center
06:23PM 35.9225 -88.7217 327° Northwest 403 464 38,000  Level Memphis Center
06:24PM 36.0153 -88.8019 325° Northwest 403 464 38,000  Level Memphis Center
06:25PM 36.1081 -88.8797 326° Northwest 403 464 38,000 -400 Level Memphis Center
06:26PM 36.1986 -88.9553 326° Northwest 403 464 37,200 -850 Descending Memphis Center
06:27PM 36.2933 -89.0336 326° Northwest 403 464 36,300 -950 Descending Memphis Center
06:28PM 36.3961 -89.0911 336° Northwest 403 464 35,300 -1,000 Descending Memphis Center
06:29PM 36.5050 -89.1514 336° Northwest 408 470 34,300 -650 Descending Memphis Center
06:30PM 36.5953 -89.2069 334° Northwest 416 479 34,000 -150 Descending Memphis Center
06:31PM 36.7000 -89.2675 335° Northwest 411 473 34,000  Level Memphis Center
06:32PM 36.7983 -89.3283 334° Northwest 405 466 34,000 -1,125 Level Memphis Center
06:34PM 37.0367 -89.4611 336° Northwest 388 447 30,100 -1,743 Descending Kansas City Center
06:35PM 37.1375 -89.5200 335° Northwest 397 457 27,900 -2,000 Descending Kansas City Center
06:36PM 37.2544 -89.5886 335° Northwest 388 447 26,000 -912 Descending Kansas City Center
06:37PM 37.3558 -89.6439 337° Northwest 394 453 26,000 -192 Level Kansas City Center
06:38PM 37.4558 -89.6978 337° Northwest 393 452 25,600 -836 Descending Kansas City Center
06:39PM 37.5539 -89.7511 337° Northwest 386 444 24,300 -1,742 Descending Kansas City Center
06:40PM 37.6567 -89.8081 336° Northwest 376 433 22,000 -2,129 Descending Kansas City Center
06:41PM 37.7483 -89.8597 336° Northwest 364 419 19,900 -2,032 Descending Kansas City Center
06:42PM 37.8400 -89.9097 337° Northwest 360 414 17,800 -2,065 Descending Kansas City Center
06:43PM 37.8908 -89.8797 25° Northeast 363 418 16,700 -2,280 Descending FAA TRACON SMA TRACON (SMA)
06:43PM 37.9261 -89.9008 335° Northwest 364 419 15,900 -2,250 Descending FAA TRACON SMA TRACON (SMA)
06:44PM 37.9550 -89.9158 338° Northwest 365 420 15,200 -1,902 Descending FAA TRACON SMA TRACON (SMA)
06:44PM 37.9831 -89.9328 335° Northwest 361 415 14,600 -2,049 Descending FAA TRACON SMA TRACON (SMA)
06:44PM 38.0183 -89.9500 339° North 354 407 13,800 -2,100 Descending FAA TRACON SMA TRACON (SMA)
06:45PM 38.0456 -89.9661 335° Northwest 350 403 13,200 -1,846 Descending FAA TRACON SMA TRACON (SMA)
06:45PM 38.0717 -89.9833 333° Northwest 346 398 12,600 -2,000 Descending FAA TRACON SMA TRACON (SMA)
06:45PM 38.1056 -90.0014 337° Northwest 343 395 11,900 -1,950 Descending FAA TRACON SMA TRACON (SMA)
06:46PM 38.1342 -90.0108 345° North 343 395 11,300 -1,800 Descending FAA TRACON SMA TRACON (SMA)
06:46PM 38.1642 -90.0147 354° North 349 402 10,700 -1,350 Descending FAA TRACON SMA TRACON (SMA)
06:46PM 38.1925 -90.0203 351° North 346 398 10,400 -750 Descending FAA TRACON SMA TRACON (SMA)
06:47PM 38.2281 -90.0225 357° North 332 382 10,200 -750 Descending FAA TRACON SMA TRACON (SMA)
06:47PM 38.2547 -90.0172 North 322 371 9,900 -732 Descending FAA TRACON SMA TRACON (SMA)
06:47PM 38.2875 -90.0042 17° North 317 365 9,700 -732 Descending FAA TRACON SMA TRACON (SMA)
06:48PM 38.3122 -89.9958 15° North 310 357 9,400 -1,077 Descending FAA TRACON SMA TRACON (SMA)
06:48PM 38.3378 -89.9869 15° North 305 351 9,000 -1,385 Descending FAA TRACON SMA TRACON (SMA)
06:48PM 38.3692 -89.9772 14° North 304 350 8,500 -1,317 Descending FAA TRACON SMA TRACON (SMA)
06:49PM 38.3942 -89.9747 North 299 344 8,100 -1,171 Descending FAA TRACON SMA TRACON (SMA)
06:49PM 38.4200 -89.9719 North 299 344 7,700 -1,200 Descending FAA TRACON SMA TRACON (SMA)
06:49PM 38.4517 -89.9689 North 296 341 7,300 -1,231 Descending FAA TRACON SMA TRACON (SMA)
06:50PM 38.4767 -89.9667 North 294 338 6,900 -1,077 Descending FAA TRACON SMA TRACON (SMA)
06:50PM 38.5019 -89.9644 North 295 339 6,600 -1,024 Descending FAA TRACON SMA TRACON (SMA)
06:50PM 38.5319 -89.9628 North 290 334 6,200 -1,171 Descending FAA TRACON SMA TRACON (SMA)
06:51PM 38.5569 -89.9628 360° North 290 334 5,800 -1,050 Descending FAA TRACON SMA TRACON (SMA)
06:51PM 38.5814 -89.9661 354° North 284 327 5,500 -1,077 Descending FAA TRACON SMA TRACON (SMA)
06:51PM 38.6106 -89.9708 353° North 280 322 5,100 -769 Descending FAA TRACON SMA TRACON (SMA)
06:52PM 38.6328 -89.9781 346° North 277 319 5,000 -146 Descending FAA TRACON SMA TRACON (SMA)
06:52PM 38.6458 -89.9989 309° West 268 308 5,000  Level FAA TRACON SMA TRACON (SMA)
06:52PM 38.6406 -90.0275 257° West 240 276 5,000  Level FAA TRACON SMA TRACON (SMA)
06:53PM 38.6294 -90.0450 231° Southwest 217 250 5,000 -900 Level FAA TRACON SMA TRACON (SMA)
06:53PM 38.6181 -90.0631 231° Southwest 208 239 4,400 -1,800 Descending FAA TRACON SMA TRACON (SMA)
06:53PM 38.6094 -90.0881 246° West 212 244 3,800 -1,317 Descending FAA TRACON SMA TRACON (SMA)
06:54PM 38.6144 -90.1092 287° West 208 239 3,500 -900 Descending FAA TRACON SMA TRACON (SMA)
06:54PM 38.6275 -90.1239 319° Northwest 208 239 3,200 -1,077 Descending FAA TRACON SMA TRACON (SMA)
06:54PM 38.6458 -90.1375 330° Northwest 201 231 2,800 -1,077 Descending FAA TRACON SMA TRACON (SMA)
06:55PM 38.6592 -90.1478 329° Northwest 188 216 2,500 -450 Descending FAA TRACON SMA TRACON (SMA)
06:55PM 38.6700 -90.1586 322° Northwest 167 192 2,500  Level FAA TRACON SMA TRACON (SMA)
06:55PM 38.6778 -90.1719 307° West 153 176 2,500 -154 Level FAA TRACON SMA TRACON (SMA)
06:56PM 38.6867 -90.1894 303° West 150 173 2,400 -585 Descending FAA TRACON SMA TRACON (SMA)
06:56PM 38.6933 -90.2028 303° West 147 169 2,100 -714 Descending FAA TRACON SMA TRACON (SMA)
06:56PM 38.7008 -90.2183 302° West 136 157 1,900 -732 Descending FAA TRACON SMA TRACON (SMA)
06:57PM 38.7069 -90.2303 303° West 132 152 1,600 -789 Descending FAA TRACON SMA TRACON (SMA)
06:57PM 38.7128 -90.2422 302° West 130 150 1,400 -769 Descending FAA TRACON SMA TRACON (SMA)
06:57PM 38.7203 -90.2575 302° West 130 150 1,100 -732 Descending FAA TRACON SMA TRACON (SMA)
06:58PM 38.7264 -90.2694 303° West 130 150 900 -600 Descending FAA TRACON SMA TRACON (SMA)
06:58PM 38.7328 -90.2819 303° West 132 152 700 -600 Descending FAA TRACON SMA TRACON (SMA)